La Crosse, WI

6:55 AM CDT on March 24, 2017 (GMT -0500)
La Crosse Municipal

Weather History for KLSE - January, 2013

Change the Weather History Date:

Friday, January 18, 2013

  Actual Average Record
Temperature  
Mean Temperature 33 °F 17 °F  
Max Temperature 48 °F 26 °F 53 °F (1880)
Min Temperature 17 °F 8 °F -43 °F (1873)
Degree Days  
Heating Degree Days 32 48  
Month to date heating degree days 765 860  
Since 1 July heating degree days 3455 3704  
Cooling Degree Days 0 0  
Month to date cooling degree days 0 0  
Year to date cooling degree days 0 0  
Moisture  
Dew Point 22 °F    
Average Humidity 63    
Maximum Humidity 77    
Minimum Humidity 49    
Precipitation  
Precipitation 0.01 in 0.03 in 0.56 in (1931)
Month to date precipitation 0.17 0.63  
Year to date precipitation 0.17 0.63  
Snow  
Snow 0.20 in 0.40 in 6.70 in (1931)
Month to date snowfall 0.3 5.7  
Since 1 July snowfall 18.7 21.3  
Snow Depth 0.00 in    
Sea Level Pressure  
Sea Level Pressure 30.04 in    
Wind  
Wind Speed 10 mph (South)    
Max Wind Speed 28 mph    
Max Gust Speed 35 mph    
Visibility 9 miles    
Events Snow    
T = Trace of Precipitation, MM = Missing Value Source: NWS Daily Summary

Daily Weather History Graph

Daily Weather History Graph

Search for Another Location

Airport or City:

Trip Planner

Search our weather history database for the weather conditions in past years. The results will help you decide how hot, cold, wet, or windy it might be!

Date:

Astronomy

Jan. 18, 2013 Rise Set
Actual Time 7:34 AM CST 4:57 PM CST
Civil Twilight 7:02 AM CST 5:29 PM CST
Nautical Twilight 6:27 AM CST 6:04 PM CST
Astronomical Twilight 5:52 AM CST 6:38 PM CST
Moon 10:56 AM CST (1/18) 12:03 AM CST (1/18)
Length of Visible Light 10h 26m
Length of Day
9h 23m
Waxing Crescent, 47% of the Moon is Illuminated
Jan 18
Waxing Crescent
Jan 18
First Quarter
Jan 26
Full
Feb 3
Last Quarter
Feb 10
New

Hourly Weather History & Observations

Time (CST) Temp. Windchill Dew Point Humidity Pressure Visibility Wind Dir Wind Speed Gust Speed Precip Events Conditions
12:53 AM 18.0 °F 12.7 °F 10.9 °F 74% 30.41 in 10.0 mi ESE 3.5 mph - N/A   Overcast
1:53 AM 18.0 °F 9.8 °F 10.9 °F 74% 30.39 in 10.0 mi SE 5.8 mph - N/A   Overcast
2:53 AM 19.0 °F 13.9 °F 10.9 °F 71% 30.37 in 10.0 mi East 3.5 mph - N/A   Overcast
3:03 AM 19.4 °F 12.8 °F 12.2 °F 74% 30.31 in 3.0 mi ESE 4.6 mph - 0.00 in Snow Light Snow
3:10 AM 17.6 °F 10.7 °F 12.2 °F 79% 30.31 in 2.0 mi ESE 4.6 mph - 0.00 in Snow Light Snow
3:25 AM 17.6 °F 9.3 °F 12.2 °F 79% 30.29 in 3.0 mi ESE 5.8 mph - 0.01 in Snow Light Snow
3:53 AM 19.0 °F 10.0 °F 12.9 °F 77% 30.32 in 10.0 mi ESE 6.9 mph - 0.01 in   Overcast
4:53 AM 19.9 °F 12.1 °F 12.9 °F 74% 30.27 in 10.0 mi ESE 5.8 mph - N/A   Overcast
5:53 AM 21.0 °F 10.6 °F 15.1 °F 78% 30.22 in 10.0 mi SSE 9.2 mph - N/A   Overcast
6:53 AM 23.0 °F 13.1 °F 16.0 °F 74% 30.17 in 10.0 mi SSE 9.2 mph - N/A   Overcast
7:53 AM 26.1 °F 16.2 °F 18.0 °F 71% 30.10 in 10.0 mi SSE 10.4 mph - N/A   Overcast
8:53 AM 28.0 °F 15.3 °F 19.9 °F 72% 30.05 in 10.0 mi South 18.4 mph 26.5 mph N/A   Mostly Cloudy
9:53 AM 30.9 °F 17.8 °F 21.9 °F 69% 30.02 in 10.0 mi South 23.0 mph 32.2 mph N/A   Scattered Clouds
10:53 AM 35.1 °F 26.4 °F 24.1 °F 64% 29.97 in 10.0 mi South 12.7 mph 23.0 mph N/A   Clear
11:53 AM 37.9 °F 32.1 °F 26.1 °F 62% 29.91 in 10.0 mi SSE 8.1 mph - N/A   Clear
12:53 PM 44.1 °F 38.1 °F 28.0 °F 53% 29.86 in 10.0 mi South 11.5 mph 21.9 mph N/A   Clear
1:53 PM 46.9 °F - 28.9 °F 50% 29.82 in 10.0 mi South 23.0 mph 27.6 mph N/A   Clear
2:53 PM 48.0 °F - 30.0 °F 50% 29.81 in 10.0 mi SSW 13.8 mph 20.7 mph N/A   Clear
3:53 PM 46.9 °F - 30.9 °F 54% 29.80 in 10.0 mi SSW 11.5 mph - N/A   Clear
4:53 PM 43.0 °F 39.5 °F 30.0 °F 60% 29.81 in 10.0 mi SSW 5.8 mph - N/A   Clear
5:53 PM 43.0 °F 38.8 °F 30.9 °F 62% 29.82 in 10.0 mi SSW 6.9 mph - N/A   Clear
6:53 PM 42.1 °F 36.6 °F 30.9 °F 65% 29.82 in 10.0 mi SW 9.2 mph - N/A   Clear
7:53 PM 39.9 °F 35.1 °F 30.9 °F 70% 29.83 in 10.0 mi WSW 6.9 mph - N/A   Clear
8:53 PM 41.0 °F 33.9 °F 30.0 °F 65% 29.83 in 10.0 mi West 12.7 mph - N/A   Clear
9:53 PM 37.9 °F 32.1 °F 28.9 °F 70% 29.83 in 10.0 mi West 8.1 mph - N/A   Clear
10:53 PM 37.0 °F 31.0 °F 28.9 °F 73% 29.84 in 10.0 mi West 8.1 mph - N/A   Clear
11:53 PM 33.1 °F 30.0 °F 27.0 °F 78% 29.83 in 10.0 mi SSW 3.5 mph - N/A   Clear